Location: Newark
(30.1000°N, 109.4667°E)
Time: 15:59:41
(UTC+00:00)

Tiros 1 - All Passes

Search period start: 19 February 2020 00:00
Search period end: 29 February 2020 00:00
Orbit: 631 x 664 km, 48.4° (Epoch: 18 February)

Date Brightness Start Highest point End Pass type
(mag) Time Alt. Az. Time Alt. Az. Time Alt. Az.
19 Feb - 01:45:36 10° NNW 01:49:42 30° NNE 01:53:49 10° E daylight
19 Feb - 03:27:35 10° WNW 03:31:55 40° SW 03:36:17 10° SSE daylight
19 Feb - 17:36:15 10° S 17:40:01 25° SE 17:43:47 10° ENE night (unlit)
19 Feb - 19:17:34 10° WSW 19:22:00 44° NW 19:26:25 10° NE night (unlit)
19 Feb - 21:03:24 10° NW 21:05:07 12° NNW 21:06:50 10° N visible
20 Feb - 00:30:21 10° NNW 00:33:06 15° NNE 00:35:51 10° ENE daylight
20 Feb - 02:11:18 10° NW 02:15:55 70° NE 02:20:33 10° SE daylight
20 Feb - 03:55:06 10° W 03:57:41 15° SW 04:00:16 10° SSW daylight
20 Feb - 18:01:15 10° SW 18:05:52 67° SE 18:10:27 10° NE night (unlit)
20 Feb - 19:44:47 10° W 19:48:21 21° NNW 19:51:55 10° NNE visible
21 Feb - 00:55:37 10° NNW 00:59:37 28° NNE 01:03:37 10° E daylight
21 Feb - 02:37:29 10° WNW 02:41:53 44° SW 02:46:18 10° SSE daylight
21 Feb - 16:46:23 10° S 16:50:00 22° SE 16:53:35 10° ENE night (unlit)
21 Feb - 18:27:26 10° WSW 18:31:56 48° NW 18:36:25 10° NE night (unlit)
21 Feb - 20:13:01 10° NW 20:15:00 12° NNW 20:16:57 10° N visible
21 Feb - 23:40:25 10° N 23:42:59 15° NNE 23:45:33 10° ENE daylight
22 Feb - 01:21:16 10° NW 01:25:51 63° NE 01:30:27 10° ESE daylight
22 Feb - 03:04:46 10° W 03:07:40 16° SW 03:10:33 10° SSW daylight
22 Feb - 17:11:14 10° SW 17:15:49 61° SE 17:20:23 10° NE night (unlit)
22 Feb - 18:54:33 10° W 18:58:15 23° NNW 19:01:57 10° NNE night (unlit)
23 Feb - 00:05:38 10° NNW 00:09:32 26° NNE 00:13:25 10° E daylight
23 Feb - 01:47:24 10° WNW 01:51:51 49° SW 01:56:20 10° SSE daylight
23 Feb - 15:56:33 10° S 15:59:58 20° SE 16:03:22 10° E night (unlit)
23 Feb - 17:37:18 10° WSW 17:41:52 53° NW 17:46:24 10° NE night (unlit)
23 Feb - 19:22:39 10° NW 19:24:52 13° NNW 19:27:04 10° N night (unlit)
23 Feb - 22:50:29 10° N 22:52:52 14° NNE 22:55:14 10° NE visible
24 Feb - 00:31:15 10° NW 00:35:48 57° NE 00:40:21 10° ESE daylight
24 Feb - 02:14:30 10° W 02:17:39 18° SW 02:20:48 10° S daylight
24 Feb - 16:21:13 10° SSW 16:25:47 54° SE 16:30:19 10° ENE night (unlit)
24 Feb - 18:04:20 10° W 18:08:10 25° NNW 18:11:59 10° NNE night (unlit)
24 Feb - 23:15:40 10° NNW 23:19:26 24° NNE 23:23:13 10° E daylight
25 Feb - 00:57:19 10° WNW 01:01:49 55° SW 01:06:20 10° SSE daylight
25 Feb - 15:06:44 10° S 15:09:57 18° SE 15:13:08 10° E night (unlit)
25 Feb - 16:47:11 10° WSW 16:51:48 58° NW 16:56:23 10° NE night (unlit)
25 Feb - 18:32:18 10° NW 18:34:44 14° NNW 18:37:10 10° N night (unlit)
25 Feb - 22:00:35 10° N 22:02:44 13° NNE 22:04:54 10° NE visible
25 Feb - 23:41:13 10° NW 23:45:44 52° NE 23:50:15 10° ESE daylight
26 Feb - 01:24:15 10° W 01:27:37 20° SW 01:31:01 10° S daylight
26 Feb - 15:31:13 10° SSW 15:35:44 49° SE 15:40:14 10° ENE night (unlit)
26 Feb - 17:14:07 10° W 17:18:04 26° NNW 17:22:00 10° NNE night (unlit)
26 Feb - 22:25:41 10° NNW 22:29:21 23° NNE 22:33:01 10° E visible
27 Feb - 00:07:14 10° NW 00:11:47 61° SW 00:16:20 10° SE daylight
27 Feb - 14:16:58 10° SSE 14:19:55 17° SE 14:22:51 10° E night (unlit)
27 Feb - 15:57:04 10° WSW 16:01:44 64° NW 16:06:22 10° NE night (unlit)
27 Feb - 17:41:58 10° WNW 17:44:37 15° NNW 17:47:14 10° NNE night (unlit)
27 Feb - 21:10:40 10° N 21:12:37 12° NNE 21:14:33 10° NE visible
27 Feb - 22:51:13 10° NW 22:55:41 48° NE 23:00:08 10° ESE daylight
28 Feb - 00:34:02 10° WNW 00:37:37 22° SW 00:41:11 10° S daylight
28 Feb - 14:41:14 10° SSW 14:45:42 44° SE 14:50:09 10° ENE night (unlit)
28 Feb - 16:23:55 10° W 16:27:59 29° NNW 16:32:01 10° NNE night (unlit)
28 Feb - 21:35:42 10° NNW 21:39:15 21° NNE 21:42:47 10° E visible
28 Feb - 23:17:10 10° NW 23:21:44 68° SW 23:26:19 10° SE daylight
